Location: Peralejo
(40.5415°N, 4.1259°W)
Time: 20:49:23
(UTC+00:00)

Okean 2 Rocket - Pass Details

Date: 18 April 2024
Orbit: 613 x 639 km, 82.5° (Epoch: 17 May)

Event Time Altitude Azimuth Distance (km) Brightness Sun altitude
Exits shadow 20:17:35 - 171° (S) 2,062 5.4 -14.6°
Reaches altitude 10° 20:17:41 10° 170° (S) 2,023 5.3 -14.6°
Maximum altitude 20:22:04 54° 93° (E) 778 3.2 -15.3°
Drops below altitude 10° 20:26:28 10° 17° (NNE) 2,032 5.9 -16.0°
Sets 20:28:44 0° 13° (NNE) 2,942 6.8 -16.4°
